Date,TemperatureHighF,TemperatureAvgF,TemperatureLowF,DewpointHighF,DewpointAvgF,DewpointLowF,HumidityHigh,HumidityAvg,HumidityLow,PressureMaxIn,PressureMinIn,WindSpeedMaxMPH,WindSpeedAvgMPH,GustSpeedMaxMPH,PrecipitationSumIn
2013-3-5,44.0,42.2,39.0,36.7,32.7,28.8,91,70,56,30.02,29.99,8,2,10,0.00
2013-3-6,39.0,35.5,33.0,34.0,14.9,-10.1,82,45,14,30.11,30.05,20,6,20,0.18
2013-3-7,33.0,30.9,29.0,21.3,4.1,-15.7,67,34,13,30.06,29.97,22,5,22,0.08
2013-3-8,39.0,31.6,28.0,34.9,1.7,-26.0,94,40,7,30.13,29.91,15,3,15,0.16
2013-3-9,52.0,34.3,20.0,37.9,21.4,-7.6,95,63,24,30.33,30.11,12,2,13,0.54
2013-3-10,51.0,32.2,16.0,40.8,17.2,-10.4,93,56,17,30.41,30.29,7,1,10,0.55
2013-3-11,56.0,42.1,31.0,47.3,24.5,-19.2,94,53,7,30.31,30.15,9,1,9,0.00
2013-3-12,56.0,48.7,40.0,33.8,-30.3,-52.1,43,7,1,30.15,29.76,13,1,13,0.42
2013-3-13,52.0,45.9,42.0,9.4,-17.6,-49.0,23,10,1,29.78,29.75,11,2,11,0.00
2013-3-14,33.0,26.6,21.0,14.5,10.8,6.7,63,51,42,29.79,29.70,17,3,21,0.00
2013-3-15,45.0,29.6,18.0,33.4,15.1,5.9,94,58,23,29.84,29.62,15,2,15,0.00
2013-3-16,42.0,33.3,25.0,31.1,17.7,7.8,96,57,26,29.85,29.64,12,2,13,0.00
2013-3-17,40.0,28.7,17.0,25.0,12.6,4.4,100,56,24,30.28,29.85,13,2,15,0.00
2013-3-18,42.0,28.2,14.0,30.0,10.3,1.8,100,51,20,30.43,30.21,8,1,10,0.00
2013-3-19,34.0,30.7,26.0,20.1,-17.8,-30.7,72,15,5,30.21,29.60,17,3,17,0.53
2013-3-20,39.0,28.9,20.0,32.1,16.6,-15.3,95,63,17,29.78,29.66,13,2,15,0.44
2013-3-21,41.0,27.1,15.0,32.7,14.5,-10.4,95,60,20,29.77,29.57,9,1,9,0.20
2013-3-22,43.0,32.5,23.0,28.3,20.9,-17.5,91,65,15,29.70,29.57,13,2,15,0.17
2013-3-23,46.0,34.3,24.0,32.2,22.6,16.7,100,66,35,29.76,29.64,17,3,18,0.00
2013-3-24,50.0,37.0,28.0,35.2,25.8,21.2,100,67,37,29.83,29.72,15,2,15,0.00
2013-3-25,44.0,35.1,27.0,41.0,29.8,6.9,95,82,42,29.75,29.53,16,3,16,0.00
2013-3-26,53.0,40.7,32.0,37.2,28.8,18.0,96,67,29,29.77,29.53,12,2,12,0.00
2013-3-27,56.0,40.4,22.0,38.3,25.4,4.1,100,60,31,29.88,29.73,14,2,17,0.00
2013-3-28,51.0,41.6,35.0,42.5,27.7,1.8,94,61,24,30.02,29.87,10,2,13,0.01
2013-3-29,59.0,43.0,26.0,43.4,26.7,-31.8,88,55,6,30.08,29.98,11,1,13,0.01
2013-3-30,60.0,45.0,29.0,37.9,24.0,-24.4,92,49,7,30.11,30.03,13,2,13,0.01
2013-3-31,64.0,44.0,23.0,46.5,23.2,-17.4,91,47,11,30.13,29.75,13,1,17,0.04